SCP
1 1 1 1 1 1 1 1 1 1 1 1 1 0 0 0 0 0 0 0 0 0 0 0 0 0 0 0 0 0 0 0 0 0 0 0 0 0 0 0 0 0 0
1 1 1 1 1 1 1 1 1 1 1 1 1 0 0 0 0 0 0 0 0 0 0 0 0 0 0 0 0 0 -0 0 0 0 0 0 0 0 0 0 0 0 0
1 1 1 1 1 1 1 1 1 1 1 1 1 1 0 0 0 0 0 0 0 0 0 0 0 0 0 0 0 0 -0 -0 0 0 0 0 0 0 0 0 0 0 0
1 1 1 1 1 1 1 1 1 1 1 1 1 1 1 0 0 0 0 0 0 0 0 0 0 0 0 0 0 0 0 0 0 0 0 0 0 0 0 0 0 0 0
1 1 1 1 1 1 1 1 1 1 1 1 1 1 1 0 0 0 0 0 0 0 0 0 0 0 0 0 0 0 0 0 0 0 0 0 0 0 0 0 0 0 0
1 1 1 1 1 1 1 1 1 1 1 1 1 1 1 1 1 0 0 0 0 0 0 0 0 0 0 0 0 0 0 0 0 0 0 0 0 0 0 0 0 0 0
1 1 1 1 1 1 1 1 1 1 1 1 1 1 1 1 1 1 1 0 0 0 0 0 0 0 0 0 0 0 0 0 0 0 0 0 0 0 0 0 0 0 0
1 1 1 1 1 1 1 1 1 1 1 1 1 1 1 1 1 1 1 1 0 0 0 0 0 0 0 0 0 0 0 0 0 0 0 0 0 0 0 0 0 0 0
1 1 1 1 1 1 1 1 1 1 1 1 1 1 1 1 1 1 1 1 0 0 0 0 0 0 0 0 0 0 0 0 0 0 0 0 0 0 0 0 0 0 0
1 1 1 1 1 1 1 1 1 1 1 1 1 1 1 1 1 1 1 1 0 0 0 0 0 0 0 0 0 0 0 0 0 0 0 0 0 0 0 0 0 0 0
1 1 1 1 1 1 1 1 1 1 1 1 1 1 1 1 1 1 1 1 0 0 0 0 0 0 0 0 0 0 0 0 0 0 0 0 0 0 0 0 0 0 0
1 1 1 1 1 1 1 1 1 1 1 1 1 1 1 1 1 1 1 0 0 0 0 0 0 0 0 0 0 0 0 0 0 0 0 0 0 0 0 0 0 0 0
1 1 1 1 1 1 1 1 1 1 1 1 1 1 1 1 1 1 1 0 0 0 0 0 0 0 0 0 0 0 0 0 0 0 0 0 0 0 0 0 0 0 0
1 1 1 1 1 1 1 0 1 1 1 1 1 1 1 0 0 0 0 0 0 0 0 0 0 0 0 0 0 0 0 0 0 0 0 0 0 0 0 0 0 0 0
1 1 1 1 1 1 0 0 0 0 1 1 1 0 0 0 0 0 0 0 0 0 0 0 0 0 0 0 0 0 0 0 0 0 0 0 0 0 0 0 0 0 0
1 1 1 1 1 1 0 0 0 0 0 0 0 0 0 0 0 0 0 0 0 0 0 0 0 0 0 0 0 0 0 0 0 0 0 0 0 0 0 0 0 0 0
1 1 1 1 1 0 0 0 0 0 0 0 0 0 0 0 0 0 0 0 0 0 0 0 0 0 0 0 0 0 0 0 0 0 0 0 0 0 0 0 0 0 0
1 1 1 1 1 0 0 0 0 0 0 0 0 0 0 0 0 0 0 0 0 0 0 0 0 0 0 0 0 0 0 0 0 0 0 0 0 0 0 0 0 0 0
1 1 1 1 0 0 0 0 0 0 0 0 0 0 0 0 0 0 0 0 0 0 0 0 0 0 0 0 0 0 0 0 0 0 0 0 0 0 0 0 0 0 0
1 1 1 1 0 0 0 0 0 0 0 0 0 0 0 0 0 0 0 0 0 0 0 0 0 0 0 0 0 0 0 0 0 0 0 0 0 0 0 0 0 0 0
1 1 1 0 0 0 0 0 0 0 0 0 0 0 0 0 0 0 0 0 0 0 0 0 0 0 0 0 0 0 0 0 0 0 0 0 0 0 0 0 0 0 0
1 1 1 0 0 0 0 0 0 0 0 0 0 0 0 0 0 0 0 0 0 0 0 0 0 0 0 0 0 0 0 0 0 0 0 0 0 0 0 0 0 0 0
1 1 1 0 0 0 0 0 0 0 0 0 0 0 0 0 0 0 0 0 0 0 0 0 0 0 0 0 0 0 0 0 0 0 0 0 0 0 0 0 0 0 0
0 0 1 1 0 0 0 0 0 1 1 0 0 0 0 0 0 0 0 0 0 0 0 0 0 0 0 0 0 0 0 0 0 0 0 0 0 0 0 0 0 0 0
0 0 0 0 0 0 0 0 1 1 1 0 0 0 0 0 0 0 0 0 0 0 0 0 0 0 0 0 0 0 0 0 0 0 0 0 0 0 0 0 0 0 0
0 0 0 0 0 0 0 0 1 1 1 0 0 0 0 0 0 0 0 0 0 0 0 0 0 0 0 0 0 0 0 0 0 0 0 0 0 0 0 0 0 0 0
Wind_Speed
8 10 10 10 10 8 8 8 8 6 5 4 4 3 2 2 1 2 3 3 3 4 3 2 2 2 2 2 2 1 1 0 1 2 2 2 1 0 1 1 1 2 3
6 8 9 9 10 10 8 7 8 7 5 4 3 3 3 2 2 1 2 2 3 3 3 3 2 2 2 2 2 2 1 0 1 2 2 2 3 2 1 1 2 2 1
10 9 9 8 8 9 10 9 8 7 7 6 4 3 2 2 1 1 1 1 3 3 3 3 3 2 2 2 1 2 2 1 0 1 3 2 2 2 2 1 1 1 1
8 9 9 8 8 8 7 7 7 6 6 6 6 6 4 3 3 3 2 2 2 3 3 3 3 3 2 2 2 2 2 2 1 0 0 2 3 2 1 2 2 1 2
9 9 9 9 9 7 6 6 7 6 6 5 6 5 4 3 2 2 2 2 2 2 3 3 3 3 2 2 2 2 2 2 2 1 1 1 0 1 2 1 2 2 2
8 7 6 6 5 6 6 6 6 5 6 6 6 5 5 4 4 3 3 2 1 1 2 3 3 3 2 2 2 2 2 2 2 2 2 2 2 2 2 2 1 1 2
6 7 7 7 7 7 7 7 7 6 5 6 6 5 5 5 5 5 4 3 2 2 3 2 2 2 2 2 2 2 1 2 2 2 2 2 2 2 2 2 1 1 2
6 7 8 8 7 7 8 7 7 6 6 6 5 5 5 4 3 3 3 4 3 3 3 3 3 3 3 2 2 1 1 1 1 2 2 1 1 2 2 3 2 0 2
5 6 6 7 7 7 7 8 8 6 5 5 5 4 4 4 4 3 3 3 2 3 3 3 3 2 2 2 2 1 1 1 1 1 1 1 1 1 1 2 3 3 1
4 5 5 5 6 5 5 5 6 6 5 5 4 4 3 3 3 4 4 3 2 2 2 2 2 2 2 2 2 1 1 1 1 1 1 1 0 0 1 1 1 2 3
4 4 4 3 4 5 5 5 5 5 4 4 4 3 3 3 3 3 3 3 2 2 3 3 3 2 2 2 2 2 2 1 0 0 1 0 0 0 0 1 1 1 2
4 5 5 4 4 4 4 4 4 4 4 4 4 4 3 3 3 3 3 3 3 3 3 3 3 3 3 3 3 2 2 2 1 0 1 0 1 1 1 1 1 1 2
4 4 4 5 5 4 3 3 3 4 4 5 5 4 3 3 3 3 3 3 3 2 2 3 3 3 2 2 3 3 2 2 2 1 1 1 1 1 0 1 0 0 1
4 4 4 5 4 5 5 3 2 3 4 4 4 4 3 3 3 3 2 2 3 2 2 2 3 3 2 2 2 3 2 2 1 1 1 1 2 2 1 1 0 0 1
4 5 5 4 5 4 4 4 3 3 4 4 4 3 3 3 2 2 2 2 2 2 2 2 2 2 2 2 3 3 3 2 1 1 1 1 2 2 2 2 2 1 1
4 5 5 5 5 5 5 4 3 3 4 4 4 3 3 3 3 2 2 2 2 2 2 1 1 1 1 2 4 4 2 2 2 2 1 1 1 1 1 2 3 3 3
5 5 5 6 6 6 6 5 4 3 4 4 3 3 3 2 2 3 2 2 2 2 2 2 2 1 2 2 3 4 3 3 3 3 2 2 1 1 1 1 1 1 3
6 5 5 5 4 4 4 4 3 3 3 3 3 3 3 2 2 2 2 2 2 2 2 2 2 2 1 2 2 3 3 2 2 3 3 2 1 2 1 1 1 1 2
5 5 4 4 4 4 4 5 4 4 3 3 3 3 3 3 3 3 3 2 2 2 2 2 3 2 2 2 2 2 2 1 1 2 2 3 3 3 2 1 1 1 2
3 4 4 4 4 3 4 4 4 4 4 3 3 3 2 3 3 4 3 2 2 2 2 2 2 3 2 2 2 3 2 1 1 1 1 3 4 4 3 3 2 2 3
3 4 5 4 4 4 4 4 4 3 4 3 2 2 2 2 3 3 2 2 2 2 2 2 2 2 2 2 2 3 2 2 1 1 2 2 3 4 5 4 4 5 3
3 4 4 3 3 4 5 4 3 3 3 3 2 2 2 2 2 2 2 2 2 2 2 1 1 0 0 1 1 2 2 2 2 2 2 2 4 4 4 3 4 4 2
3 3 3 2 2 3 4 4 3 2 2 3 2 2 2 2 2 3 3 2 2 2 1 1 1 1 0 0 1 2 3 2 1 2 3 4 5 4 3 4 4 2 2
2 2 3 2 2 2 3 3 3 3 3 3 2 2 2 1 1 1 2 2 2 2 2 2 2 1 1 1 1 1 1 1 1 1 2 3 3 2 2 2 2 2 2
1 2 3 3 3 2 3 3 3 3 3 3 2 2 2 2 1 1 1 2 2 3 3 3 3 3 2 4 4 2 1 1 1 0 1 1 1 1 1 1 1 1 1
1 2 2 3 3 3 2 2 2 3 4 3 3 2 2 2 2 2 1 3 1 1 3 3 3 3 4 4 4 3 2 2 2 2 0 1 1 1 2 2 2 2 2
Wind_Direction
172 160 157 155 149 150 149 150 146 148 143 137 138 136 138 147 141 145 149 148 146 143 138 143 137 134 141 157 148 136 127 78 106 76 13 346 334 251 205 196 188 215 217
150 154 157 159 159 157 153 150 152 152 158 159 155 151 145 151 160 154 143 147 147 150 151 144 145 147 138 124 121 123 122 239 123 122 92 5 344 329 261 218 209 220 202
163 160 157 161 157 162 164 162 165 160 162 154 133 119 96 83 105 136 158 173 157 151 146 151 147 148 143 149 152 144 138 166 309 127 136 141 231 299 319 285 232 213 203
159 161 161 161 164 172 167 159 157 156 157 151 148 151 158 172 189 180 176 174 159 157 156 150 150 154 153 156 169 152 147 142 185 298 159 163 166 167 298 322 309 249 220
160 163 169 173 166 161 160 161 154 156 156 150 154 161 167 175 170 163 159 170 166 167 163 159 155 156 160 165 160 151 150 159 172 184 176 100 74 146 158 270 307 315 273
166 163 164 155 150 149 157 157 152 159 160 154 160 170 164 161 160 169 173 183 185 181 181 162 160 165 169 175 178 172 167 177 164 165 154 161 172 190 169 194 250 278 286
158 156 153 155 157 163 163 160 160 164 167 162 168 171 167 163 170 176 178 174 177 188 200 176 168 172 180 180 171 161 186 183 167 177 189 187 197 179 161 160 203 265 299
162 158 161 163 164 167 161 161 167 171 176 172 173 164 161 162 171 176 173 178 183 190 186 173 168 169 177 173 158 159 184 172 179 182 180 184 212 178 169 165 154 118 329
160 159 157 158 160 163 167 169 167 165 173 175 170 162 162 163 166 166 159 167 180 180 169 164 167 174 182 175 158 167 185 155 172 174 159 169 231 179 168 157 156 155 184
155 151 149 159 158 157 151 153 159 168 172 165 168 163 162 162 162 153 156 160 164 163 162 165 162 174 181 170 155 165 159 139 172 171 139 151 224 143 120 145 148 155 166
146 139 138 150 147 139 139 144 150 150 152 152 149 144 146 141 140 151 159 156 160 158 166 173 166 177 192 181 160 168 148 146 145 123 138 213 177 108 99 125 131 143 153
144 135 133 126 121 126 132 133 142 150 153 150 142 144 138 132 136 151 163 160 169 180 176 174 174 186 183 171 162 171 156 148 152 170 107 2 58 58 34 78 117 149 159
133 130 128 130 133 134 132 136 143 145 142 144 143 141 144 145 154 167 166 165 172 183 177 167 171 180 177 168 173 174 169 168 176 173 157 177 119 82 47 61 44 201 149
141 133 134 141 144 138 136 147 146 149 147 143 145 149 159 166 176 173 166 171 172 170 173 175 174 175 175 174 175 166 164 170 180 181 170 176 165 177 178 158 181 161 123
139 148 155 156 149 142 142 152 164 172 158 145 148 159 164 165 158 174 175 169 162 165 172 163 166 173 179 192 171 162 166 171 181 194 193 182 168 178 189 194 197 168 152
160 162 160 154 151 154 155 159 173 173 153 148 159 159 158 161 162 178 167 157 154 155 146 146 165 172 205 181 171 165 166 174 178 194 214 211 187 191 199 216 201 185 180
171 171 169 166 168 168 164 170 175 166 158 159 158 158 158 168 181 185 169 175 188 172 158 177 170 187 210 185 171 174 169 179 184 190 203 223 222 212 204 266 271 234 220
175 179 171 166 168 167 162 154 143 149 156 154 157 165 176 186 186 179 187 198 191 184 190 201 186 180 207 175 165 175 174 180 193 194 195 194 222 239 210 220 272 263 254
176 175 168 159 157 160 158 141 143 153 155 163 173 187 190 181 182 186 196 200 181 190 205 197 185 179 206 188 168 151 151 170 207 209 203 196 205 229 208 179 215 272 288
144 141 133 129 141 153 145 145 154 157 172 181 187 191 181 178 187 190 188 190 181 196 191 194 197 187 201 210 183 152 147 164 221 250 234 222 222 228 212 193 193 225 258
142 136 134 148 166 153 144 158 167 186 191 176 167 169 174 175 180 180 167 164 172 165 168 189 222 206 196 200 186 167 156 177 196 225 245 253 255 245 225 207 206 219 217
140 140 143 158 168 159 156 164 192 204 179 160 154 169 188 189 174 165 164 160 156 160 166 173 231 251 199 153 160 177 184 184 188 222 239 252 265 266 244 224 232 225 198
142 139 140 138 139 156 157 163 196 182 156 146 147 167 182 183 157 161 163 151 152 163 182 175 187 233 256 217 186 187 197 207 213 246 258 266 267 267 257 242 237 205 177
154 133 129 136 141 146 151 169 176 159 153 157 158 160 154 157 140 145 151 146 158 173 187 198 195 209 228 250 276 276 256 243 286 296 296 293 277 264 268 268 247 211 199
173 150 161 167 176 167 166 172 162 147 148 156 158 160 158 161 140 114 117 154 180 193 191 199 190 184 215 237 222 202 216 210 231 325 3 5 351 315 283 258 246 234 223
172 162 177 174 176 168 171 175 162 154 156 161 161 160 158 155 148 135 59 23 24 234 210 202 192 206 214 207 206 208 207 209 169 124 138 264 249 235 248 247 240 218 215